Location: Marengo
(51.4813°N, 109.7825°W)
Time: 01:01:17
(UTC+00:00)

Envisat - Pass Details

Date: 27 January 2022
Orbit: 764 x 765 km, 98.2° (Epoch: 22 May)

Event Time Altitude Azimuth Distance (km) Brightness Sun altitude
Rises 11:59:11 0° 17° (NNE) 3,244 6.5 -28.6°
Reaches altitude 10° 12:01:33 10° 22° (NNE) 2,313 5.8 -28.3°
Maximum altitude 12:06:33 54° 100° (E) 925 3.6 -27.5°
Drops below altitude 10° 12:11:31 10° 178° (S) 2,297 5.4 -26.7°
Sets 12:13:52 0° 183° (S) 3,219 6.2 -26.4°
